Andravida, Greece

3:46 AM EEST on August 20, 2017 (GMT +0300)
Andravida Air Base

Weather History for LGAD - October, 2013

Change the Weather History Date:

Thursday, October 3, 2013

  Actual Average Record
Temperature  
Mean Temperature 68 °F -  
Max Temperature 76 °F 72 °F 84 °F (2011)
Min Temperature 60 °F 53 °F 50 °F (2002)
Cooling Degree Days 3    
Growing Degree Days 18 (Base 50)    
Moisture  
Dew Point 53 °F    
Average Humidity 56    
Maximum Humidity 78    
Minimum Humidity 27    
Precipitation  
Precipitation 0.00 in - - ()
Sea Level Pressure  
Sea Level Pressure 30.03 in    
Wind  
Wind Speed 5 mph ()    
Max Wind Speed 12 mph    
Max Gust Speed -    
Visibility 6.2 miles    
Events      
Averages and records for this station are not official NWS values.
T = Trace of Precipitation, MM = Missing Value Source: Averaged Metar Reports

Daily Weather History Graph

Daily Weather History Graph

Search for Another Location

Airport or City:

Trip Planner

Search our weather history database for the weather conditions in past years. The results will help you decide how hot, cold, wet, or windy it might be!

Date:

Astronomy

Oct. 03, 2013 Rise Set
Actual Time 7:32 AM EEST 7:14 PM EEST
Civil Twilight 7:06 AM EEST 7:41 PM EEST
Nautical Twilight 6:35 AM EEST 8:11 PM EEST
Astronomical Twilight 6:04 AM EEST 8:42 PM EEST
Moon 5:48 AM EEST (10/3) 6:12 PM EEST (10/3)
Length of Visible Light 12h 35m
Length of Day
11h 42m
Waning Crescent, 3% of the Moon is Illuminated
Oct 3
Waning Crescent
Oct 5
New
Oct 12
First Quarter
Oct 19
Full
Oct 27
Last Quarter

Hourly Weather History & Observations

Time (EEST) Temp. Dew Point Humidity Pressure Visibility Wind Dir Wind Speed Gust Speed Precip Events Conditions
12:20 AM 69.8 °F 55.4 °F 60% 29.92 in 6.2 mi NW 10.4 mph - N/A   Partly Cloudy
1:20 AM 69.8 °F 55.4 °F 60% 29.95 in 6.2 mi NW 5.8 mph - N/A   Partly Cloudy
2:20 AM 68.0 °F 53.6 °F 60% 29.95 in 6.2 mi Calm Calm - N/A   Partly Cloudy
2:50 AM 68.0 °F 55.4 °F 64% 29.95 in 6.2 mi NW 8.1 mph - N/A   Partly Cloudy
3:00 AM 68 °F 55 °F 54% 29.95 in 6 mi NW 8.1 mph - -   Scattered Clouds
3:20 AM 69.8 °F 59.0 °F 68% 29.95 in 6.2 mi WNW 11.5 mph - N/A   Partly Cloudy
4:20 AM 68.0 °F 53.6 °F 60% 29.95 in 6.2 mi WSW 4.6 mph - N/A   Partly Cloudy
4:50 AM 66.2 °F 51.8 °F 60% 29.95 in 6.2 mi Calm Calm - N/A   Partly Cloudy
5:20 AM 66.2 °F 51.8 °F 60% 29.95 in 6.2 mi Calm Calm - N/A   Partly Cloudy
5:50 AM 66.2 °F 53.6 °F 64% 29.95 in 6.2 mi NW 4.6 mph - N/A   Partly Cloudy
6:50 AM 66.2 °F 55.4 °F 68% 29.95 in 6.2 mi NNE 4.6 mph - N/A   Partly Cloudy
7:20 AM 62.6 °F 55.4 °F 77% 29.98 in 6.2 mi NE 5.8 mph - N/A   Partly Cloudy
7:50 AM 62.6 °F 55.4 °F 77% 29.98 in 6.2 mi Calm Calm - N/A   Partly Cloudy
8:20 AM 64.4 °F 57.2 °F 77% 29.98 in 6.2 mi Calm Calm - N/A   Partly Cloudy
8:50 AM 66.2 °F 59.0 °F 78% 30.01 in 6.2 mi Calm Calm - N/A   Partly Cloudy
9:00 AM 66 °F 58 °F 69% 30.01 in 6 mi Calm Calm - -   Scattered Clouds
9:20 AM 69.8 °F 57.2 °F 64% 30.01 in 6.2 mi Calm Calm - N/A   Partly Cloudy
9:50 AM 69.8 °F 59.0 °F 68% 30.01 in 6.2 mi Calm Calm - N/A   Partly Cloudy
10:20 AM 69.8 °F 59.0 °F 68% 30.01 in 6.2 mi Calm Calm - N/A   Partly Cloudy
10:50 AM 71.6 °F 53.6 °F 53% 30.04 in 6.2 mi North 4.6 mph - N/A   Partly Cloudy
11:20 AM 73.4 °F 53.6 °F 50% 30.04 in 6.2 mi NW 4.6 mph - N/A   Partly Cloudy
11:50 AM 73.4 °F 53.6 °F 50% 30.04 in 6.2 mi West 6.9 mph - N/A   Partly Cloudy
12:20 PM 73.4 °F 53.6 °F 50% 30.04 in 6.2 mi West 6.9 mph - N/A   Partly Cloudy
12:50 PM 75.2 °F 51.8 °F 44% 30.04 in 6.2 mi NW 9.2 mph - N/A   Partly Cloudy
1:20 PM 75.2 °F 51.8 °F 44% 30.04 in 6.2 mi NW 9.2 mph - N/A   Partly Cloudy
1:50 PM 77.0 °F 50.0 °F 39% 30.06 in 6.2 mi NW 11.5 mph - N/A   Partly Cloudy
2:20 PM 77.0 °F 50.0 °F 39% 30.06 in 6.2 mi NW 11.5 mph - N/A   Partly Cloudy
2:50 PM 75.2 °F 48.2 °F 38% 30.06 in 6.2 mi NW 9.2 mph - N/A   Partly Cloudy
3:00 PM 76 °F 49 °F 27% 30.07 in 6 mi NW 9.2 mph - -   Scattered Clouds
3:20 PM 75.2 °F 48.2 °F 38% 30.06 in 6.2 mi NW 9.2 mph - N/A   Partly Cloudy
3:50 PM 75.2 °F 48.2 °F 38% 30.06 in 6.2 mi NW 11.5 mph - N/A   Partly Cloudy
4:20 PM 75.2 °F 48.2 °F 38% 30.06 in 6.2 mi NW 11.5 mph - N/A   Partly Cloudy
4:50 PM 75.2 °F 50.0 °F 41% 30.06 in 6.2 mi NW 9.2 mph - N/A   Partly Cloudy
5:20 PM 75.2 °F 50.0 °F 41% 30.06 in 6.2 mi NW 9.2 mph - N/A   Partly Cloudy
5:50 PM 73.4 °F 51.8 °F 47% 30.06 in 6.2 mi NW 9.2 mph - N/A   Partly Cloudy
6:20 PM 73.4 °F 51.8 °F 47% 30.06 in 6.2 mi NW 9.2 mph - N/A   Partly Cloudy
6:50 PM 71.6 °F 50.0 °F 46% 30.06 in 6.2 mi NW 6.9 mph - N/A   Partly Cloudy
7:20 PM 71.6 °F 50.0 °F 46% 30.06 in 6.2 mi NW 6.9 mph - N/A   Partly Cloudy
7:50 PM 66.2 °F 50.0 °F 56% 30.09 in 6.2 mi NNE 6.9 mph - N/A   Partly Cloudy
8:20 PM 66.2 °F 50.0 °F 56% 30.09 in 6.2 mi NNE 6.9 mph - N/A   Partly Cloudy
8:50 PM 62.6 °F 50.0 °F 63% 30.12 in 6.2 mi NE 4.6 mph - N/A   Partly Cloudy
9:00 PM 63 °F 50 °F 52% 30.13 in 6 mi NE 4.6 mph - -   Scattered Clouds
9:50 PM 62.6 °F 50.0 °F 63% 30.12 in 6.2 mi NE 4.6 mph - N/A   Partly Cloudy
10:20 PM 62.6 °F 50.0 °F 63% 30.12 in 6.2 mi NE 4.6 mph - N/A   Partly Cloudy
10:50 PM 60.8 °F 50.0 °F 68% 30.15 in 6.2 mi Calm Calm - N/A   Partly Cloudy
11:50 PM 60.8 °F 50.0 °F 68% 30.15 in 6.2 mi Calm Calm - N/A   Partly Cloudy